Zurück zum Katalog

PEGASUS R/B

AktivSSO
NORAD 39198·ROCKET BODY·🇺🇸 United States

Gestartet Jun 28, 2013 von Vandenberg Space Force Base

Loading…

Nächste Überflüge (nächste 24 Stunden)

TLE

AktuellSource: Space-Track

Epoche: Sep 14, 2026, 06:12 UTC

1 39198U 13033B   26257.25875017  .00000703  00000-0  85764-4 0  9991
2 39198  97.9018  93.4086 0020277 359.8819   0.2388 14.86363045714044

Verfolge PEGASUS R/B in Echtzeit mit AllMySat

Download on the App Store